Time,TemperatureF,DewpointF,PressureIn,WindDirection,WindDirectionDegrees,WindSpeedMPH,WindSpeedGustMPH,Humidity,HourlyPrecipIn,Conditions,Clouds,dailyrainin,SoftwareType,DateUTC
2013-04-13 00:01:00,72.0,68.5,29.88,North,359,3.0,5.0,89,0.00,,,0.00,meteohub,2013-04-13 04:01:00,
2013-04-13 00:02:00,72.0,68.5,29.88,North,4,4.0,5.0,89,0.00,,,0.00,meteohub,2013-04-13 04:02:00,
2013-04-13 00:04:00,72.0,68.5,29.88,North,4,2.0,5.0,89,0.00,,,0.00,meteohub,2013-04-13 04:04:00,
2013-04-13 00:10:00,72.0,68.5,29.88,NNE,18,0.0,7.0,89,0.00,,,0.00,meteohub,2013-04-13 04:10:00,
2013-04-13 00:16:00,72.0,68.5,29.88,NNE,19,0.0,7.0,89,0.00,,,0.00,meteohub,2013-04-13 04:16:00,
2013-04-13 00:22:00,71.8,68.4,29.87,NNE,13,0.0,7.0,89,0.00,,,0.00,meteohub,2013-04-13 04:22:00,
2013-04-13 00:27:00,72.0,68.5,29.87,NNE,12,0.0,6.0,89,0.00,,,0.00,meteohub,2013-04-13 04:27:00,
2013-04-13 00:32:00,72.0,68.5,29.87,NNE,12,0.0,6.0,89,0.00,,,0.00,meteohub,2013-04-13 04:32:00,
2013-04-13 00:37:00,72.0,68.5,29.87,NNE,32,2.0,6.0,89,0.00,,,0.00,meteohub,2013-04-13 04:37:00,
2013-04-13 00:42:00,72.0,68.5,29.87,NNE,32,1.0,5.0,89,0.00,,,0.00,meteohub,2013-04-13 04:42:00,
2013-04-13 00:47:00,72.0,68.5,29.87,NNE,16,0.0,4.0,89,0.00,,,0.00,meteohub,2013-04-13 04:47:00,
2013-04-13 00:52:00,72.0,68.5,29.87,NNE,16,0.0,5.0,89,0.00,,,0.00,meteohub,2013-04-13 04:52:00,
2013-04-13 00:57:00,72.1,68.7,29.86,NNE,16,0.0,5.0,89,0.00,,,0.00,meteohub,2013-04-13 04:57:00,
2013-04-13 01:02:00,72.0,68.2,29.86,NNE,16,0.0,5.0,88,0.00,,,0.00,meteohub,2013-04-13 05:02:00,
2013-04-13 01:07:00,71.8,68.0,29.86,NNE,16,0.0,5.0,88,0.00,,,0.00,meteohub,2013-04-13 05:07:00,
2013-04-13 01:12:00,71.8,68.4,29.86,North,359,3.0,5.0,89,0.00,,,0.00,meteohub,2013-04-13 05:12:00,
2013-04-13 01:17:00,71.8,68.4,29.86,North,4,0.0,7.0,89,0.00,,,0.00,meteohub,2013-04-13 05:17:00,
2013-04-13 01:23:00,72.0,68.5,29.86,North,11,4.0,7.0,89,0.00,,,0.00,meteohub,2013-04-13 05:23:00,
2013-04-13 01:30:00,72.0,68.5,29.87,North,9,3.0,7.0,89,0.00,,,0.00,meteohub,2013-04-13 05:30:00,
2013-04-13 01:36:00,72.1,68.4,29.87,North,9,0.0,4.0,88,0.00,,,0.00,meteohub,2013-04-13 05:36:00,
2013-04-13 01:42:00,72.1,68.4,29.87,North,10,0.0,4.0,88,0.00,,,0.00,meteohub,2013-04-13 05:42:00,
2013-04-13 01:48:00,72.3,68.5,29.87,North,10,0.0,4.0,88,0.00,,,0.00,meteohub,2013-04-13 05:48:00,
2013-04-13 01:54:00,72.1,68.4,29.87,North,10,0.0,1.0,88,0.00,,,0.00,meteohub,2013-04-13 05:54:00,
2013-04-13 02:00:00,72.1,68.4,29.86,North,10,0.0,1.0,88,0.00,,,0.00,meteohub,2013-04-13 06:00:00,
2013-04-13 02:06:00,72.0,68.2,29.87,North,10,0.0,1.0,88,0.00,,,0.00,meteohub,2013-04-13 06:06:00,
2013-04-13 02:12:00,71.8,68.0,29.87,North,10,0.0,1.0,88,0.00,,,0.00,meteohub,2013-04-13 06:12:00,
2013-04-13 02:17:00,71.8,68.4,29.86,North,10,0.0,1.0,89,0.00,,,0.00,meteohub,2013-04-13 06:17:00,
2013-04-13 02:22:00,71.4,68.0,29.87,North,10,0.0,1.0,89,0.00,,,0.00,meteohub,2013-04-13 06:22:00,
2013-04-13 02:27:00,71.4,68.0,29.86,North,10,0.0,1.0,89,0.00,,,0.00,meteohub,2013-04-13 06:27:00,
2013-04-13 02:33:00,71.2,67.8,29.86,North,10,0.0,1.0,89,0.00,,,0.00,meteohub,2013-04-13 06:33:00,
2013-04-13 02:39:00,71.2,68.2,29.86,North,10,0.0,1.0,90,0.00,,,0.00,meteohub,2013-04-13 06:39:00,
2013-04-13 02:46:00,71.2,68.2,29.86,North,10,0.0,1.0,90,0.00,,,0.00,meteohub,2013-04-13 06:46:00,
2013-04-13 02:52:00,71.2,68.2,29.86,North,10,0.0,1.0,90,0.00,,,0.00,meteohub,2013-04-13 06:52:00,
2013-04-13 02:57:00,71.1,68.0,29.86,North,10,0.0,1.0,90,0.00,,,0.00,meteohub,2013-04-13 06:57:00,
2013-04-13 03:02:00,71.1,68.0,29.86,North,10,0.0,1.0,90,0.00,,,0.00,meteohub,2013-04-13 07:02:00,
2013-04-13 03:08:00,71.1,68.0,29.87,North,10,0.0,1.0,90,0.00,,,0.00,meteohub,2013-04-13 07:08:00,
2013-04-13 03:14:00,71.1,68.0,29.87,North,10,0.0,0.0,90,0.00,,,0.00,meteohub,2013-04-13 07:14:00,
2013-04-13 03:20:00,71.2,68.2,29.86,North,10,0.0,0.0,90,0.00,,,0.00,meteohub,2013-04-13 07:20:00,
2013-04-13 03:27:00,71.4,68.4,29.86,North,10,0.0,0.0,90,0.00,,,0.00,meteohub,2013-04-13 07:27:00,
2013-04-13 03:32:00,71.8,68.4,29.86,North,10,0.0,1.0,89,0.00,,,0.00,meteohub,2013-04-13 07:32:00,
2013-04-13 03:38:00,71.8,68.0,29.86,North,10,0.0,1.0,88,0.00,,,0.00,meteohub,2013-04-13 07:38:00,
2013-04-13 03:45:00,72.0,67.8,29.86,North,10,0.0,1.0,87,0.00,,,0.00,meteohub,2013-04-13 07:45:00,
2013-04-13 03:51:00,72.0,68.2,29.85,North,10,0.0,1.0,88,0.00,,,0.00,meteohub,2013-04-13 07:51:00,
2013-04-13 03:57:00,72.0,68.2,29.86,North,10,0.0,1.0,88,0.00,,,0.00,meteohub,2013-04-13 07:57:00,
2013-04-13 04:03:00,72.0,68.2,29.85,North,10,0.0,1.0,88,0.00,,,0.00,meteohub,2013-04-13 08:03:00,
2013-04-13 04:09:00,72.0,68.2,29.85,North,10,0.0,0.0,88,0.00,,,0.00,meteohub,2013-04-13 08:09:00,
2013-04-13 04:15:00,72.1,68.4,29.86,North,4,0.0,1.0,88,0.00,,,0.00,meteohub,2013-04-13 08:15:00,
2013-04-13 04:21:00,72.1,68.4,29.86,North,4,0.0,3.0,88,0.00,,,0.00,meteohub,2013-04-13 08:21:00,
2013-04-13 04:27:00,72.0,67.8,29.86,North,4,0.0,3.0,87,0.00,,,0.00,meteohub,2013-04-13 08:27:00,
2013-04-13 04:32:00,72.1,68.0,29.86,North,4,0.0,1.0,87,0.00,,,0.00,meteohub,2013-04-13 08:32:00,
2013-04-13 04:40:00,72.1,67.6,29.86,North,4,0.0,0.0,86,0.00,,,0.00,meteohub,2013-04-13 08:40:00,
2013-04-13 04:47:00,72.1,67.6,29.86,North,4,0.0,1.0,86,0.00,,,0.00,meteohub,2013-04-13 08:47:00,
2013-04-13 04:52:00,72.1,67.6,29.86,North,4,0.0,1.0,86,0.00,,,0.00,meteohub,2013-04-13 08:52:00,
2013-04-13 04:57:00,72.1,67.6,29.86,North,4,0.0,1.0,86,0.00,,,0.00,meteohub,2013-04-13 08:57:00,
2013-04-13 05:02:00,72.1,67.6,29.86,North,4,0.0,1.0,86,0.00,,,0.00,meteohub,2013-04-13 09:02:00,
2013-04-13 05:08:00,72.1,67.6,29.86,North,4,0.0,1.0,86,0.00,,,0.00,meteohub,2013-04-13 09:08:00,
2013-04-13 05:14:00,72.0,67.5,29.86,North,4,0.0,0.0,86,0.00,,,0.00,meteohub,2013-04-13 09:14:00,
2013-04-13 05:20:00,71.8,67.3,29.86,North,4,0.0,0.0,86,0.00,,,0.00,meteohub,2013-04-13 09:20:00,
2013-04-13 05:27:00,71.6,67.5,29.86,North,4,0.0,0.0,87,0.00,,,0.00,meteohub,2013-04-13 09:27:00,
2013-04-13 05:32:00,71.4,67.3,29.86,North,4,0.0,0.0,87,0.00,,,0.00,meteohub,2013-04-13 09:32:00,
2013-04-13 05:37:00,71.1,67.3,29.86,North,4,0.0,0.0,88,0.00,,,0.00,meteohub,2013-04-13 09:37:00,
2013-04-13 05:42:00,70.9,67.1,29.86,North,4,0.0,0.0,88,0.00,,,0.00,meteohub,2013-04-13 09:42:00,
2013-04-13 05:49:00,70.5,67.1,29.86,North,4,0.0,2.0,89,0.00,,,0.00,meteohub,2013-04-13 09:49:00,
2013-04-13 05:55:00,70.3,66.9,29.86,North,4,0.0,2.0,89,0.00,,,0.00,meteohub,2013-04-13 09:55:00,
2013-04-13 06:01:00,70.3,67.3,29.86,North,4,0.0,0.0,90,0.00,,,0.00,meteohub,2013-04-13 10:01:00,
2013-04-13 06:07:00,70.3,67.3,29.86,North,4,0.0,0.0,90,0.00,,,0.00,meteohub,2013-04-13 10:07:00,
2013-04-13 06:12:00,70.3,67.3,29.86,North,4,0.0,0.0,90,0.00,,,0.00,meteohub,2013-04-13 10:12:00,
2013-04-13 06:17:00,70.3,67.3,29.86,North,4,0.0,0.0,90,0.00,,,0.00,meteohub,2013-04-13 10:17:00,
2013-04-13 06:23:00,70.3,67.3,29.86,North,4,0.0,0.0,90,0.00,,,0.00,meteohub,2013-04-13 10:23:00,
2013-04-13 06:30:00,70.2,67.1,29.86,North,4,0.0,0.0,90,0.00,,,0.00,meteohub,2013-04-13 10:30:00,
2013-04-13 06:36:00,70.2,67.5,29.86,North,4,0.0,0.0,91,0.00,,,0.00,meteohub,2013-04-13 10:36:00,
2013-04-13 06:42:00,70.3,67.6,29.87,North,4,0.0,2.0,91,0.00,,,0.00,meteohub,2013-04-13 10:42:00,
2013-04-13 06:48:00,71.1,68.4,29.87,NNW,328,0.0,4.0,91,0.00,,,0.00,meteohub,2013-04-13 10:48:00,
2013-04-13 06:55:00,71.1,68.0,29.88,NNW,328,0.0,4.0,90,0.00,,,0.00,meteohub,2013-04-13 10:55:00,
2013-04-13 07:01:00,71.1,68.0,29.88,NNW,328,0.0,3.0,90,0.00,,,0.00,meteohub,2013-04-13 11:01:00,
2013-04-13 07:07:00,71.1,68.0,29.88,NNW,328,0.0,0.0,90,0.00,,,0.00,meteohub,2013-04-13 11:07:00,
2013-04-13 07:12:00,71.1,68.0,29.88,NNW,328,0.0,0.0,90,0.00,,,0.00,meteohub,2013-04-13 11:12:00,
2013-04-13 07:19:00,71.2,68.2,29.89,NNW,328,0.0,0.0,90,0.00,,,0.00,meteohub,2013-04-13 11:19:00,
2013-04-13 07:25:00,71.2,68.2,29.89,NNW,328,0.0,2.0,90,0.00,,,0.00,meteohub,2013-04-13 11:25:00,
2013-04-13 07:32:00,71.2,68.2,29.90,NNW,328,1.0,2.0,90,0.00,,,0.00,meteohub,2013-04-13 11:32:00,
2013-04-13 07:37:00,71.1,68.0,29.90,NNW,327,0.0,2.0,90,0.00,,,0.00,meteohub,2013-04-13 11:37:00,
2013-04-13 07:42:00,71.1,68.0,29.90,NW,309,1.0,4.0,90,0.00,,,0.00,meteohub,2013-04-13 11:42:00,
2013-04-13 07:47:00,71.1,68.0,29.91,NW,308,0.0,5.0,90,0.00,,,0.00,meteohub,2013-04-13 11:47:00,
2013-04-13 07:52:00,70.7,67.3,29.91,NNW,339,4.0,8.0,89,0.00,,,0.00,meteohub,2013-04-13 11:52:00,
2013-04-13 07:57:00,70.3,67.3,29.91,North,9,2.0,8.0,90,0.00,,,0.00,meteohub,2013-04-13 11:57:00,
2013-04-13 08:05:00,70.2,67.5,29.91,NE,48,2.0,8.0,91,0.00,,,0.00,meteohub,2013-04-13 12:05:00,
2013-04-13 08:10:00,70.2,67.5,29.91,North,9,2.0,7.0,91,0.00,,,0.00,meteohub,2013-04-13 12:10:00,
2013-04-13 08:16:00,70.3,67.6,29.91,NNE,14,3.0,5.0,91,0.00,,,0.00,meteohub,2013-04-13 12:16:00,
2013-04-13 08:22:00,70.3,67.6,29.92,NW,317,6.0,6.0,91,0.00,,,0.00,meteohub,2013-04-13 12:22:00,
2013-04-13 08:27:00,70.2,67.5,29.92,NNW,341,0.0,8.0,91,0.00,,,0.00,meteohub,2013-04-13 12:27:00,
2013-04-13 08:35:00,70.2,67.5,29.93,NNW,344,0.0,8.0,91,0.00,,,0.00,meteohub,2013-04-13 12:35:00,
2013-04-13 08:41:00,70.2,67.1,29.93,North,354,1.0,6.0,90,0.00,,,0.00,meteohub,2013-04-13 12:41:00,
2013-04-13 08:47:00,70.2,67.1,29.94,North,354,1.0,6.0,90,0.00,,,0.00,meteohub,2013-04-13 12:47:00,
2013-04-13 08:52:00,70.3,67.3,29.93,North,354,0.0,7.0,90,0.00,,,0.00,meteohub,2013-04-13 12:52:00,
2013-04-13 08:57:00,70.5,67.5,29.93,NNW,341,4.0,7.0,90,0.00,,,0.00,meteohub,2013-04-13 12:57:00,
2013-04-13 09:02:00,70.7,67.6,29.93,NNE,25,1.0,7.0,90,0.00,,,0.00,meteohub,2013-04-13 13:02:00,
2013-04-13 09:08:00,71.1,67.3,29.93,NW,318,0.0,7.0,88,0.00,,,0.00,meteohub,2013-04-13 13:08:00,
2013-04-13 09:15:00,71.2,67.5,29.93,NNE,12,0.0,7.0,88,0.00,,,0.00,meteohub,2013-04-13 13:15:00,
2013-04-13 09:22:00,71.4,67.6,29.94,NNE,16,4.0,7.0,88,0.00,,,0.00,meteohub,2013-04-13 13:22:00,
2013-04-13 09:27:00,72.0,68.2,29.94,NNE,31,0.0,7.0,88,0.00,,,0.00,meteohub,2013-04-13 13:27:00,
2013-04-13 09:33:00,72.1,68.0,29.94,NW,305,0.0,7.0,87,0.00,,,0.00,meteohub,2013-04-13 13:33:00,
2013-04-13 09:39:00,72.1,67.6,29.94,NW,312,0.0,6.0,86,0.00,,,0.00,meteohub,2013-04-13 13:39:00,
2013-04-13 09:46:00,72.0,67.5,29.94,NW,315,3.0,6.0,86,0.00,,,0.00,meteohub,2013-04-13 13:46:00,
2013-04-13 09:52:00,72.1,67.6,29.94,NW,316,0.0,7.0,86,0.00,,,0.00,meteohub,2013-04-13 13:52:00,
2013-04-13 09:57:00,72.0,67.5,29.94,NW,322,4.0,7.0,86,0.00,,,0.00,meteohub,2013-04-13 13:57:00,
2013-04-13 10:02:00,72.1,68.0,29.94,NNW,332,1.0,8.0,87,0.00,,,0.00,meteohub,2013-04-13 14:02:00,
2013-04-13 10:07:00,72.1,68.0,29.94,NW,324,5.0,10.0,87,0.00,,,0.00,meteohub,2013-04-13 14:07:00,
2013-04-13 10:13:00,72.5,68.0,29.94,North,349,1.0,10.0,86,0.00,,,0.00,meteohub,2013-04-13 14:13:00,
2013-04-13 10:19:00,72.9,68.4,29.95,NW,319,5.0,10.0,86,0.00,,,0.00,meteohub,2013-04-13 14:19:00,
2013-04-13 10:26:00,73.2,68.4,29.95,WNW,299,2.0,7.0,85,0.00,,,0.00,meteohub,2013-04-13 14:26:00,
2013-04-13 10:32:00,72.9,68.0,29.95,NNE,20,0.0,8.0,85,0.00,,,0.00,meteohub,2013-04-13 14:32:00,
2013-04-13 10:38:00,73.2,68.4,29.95,NNW,332,4.0,8.0,85,0.00,,,0.00,meteohub,2013-04-13 14:38:00,
2013-04-13 10:44:00,73.8,68.4,29.94,NW,322,1.0,8.0,83,0.00,,,0.00,meteohub,2013-04-13 14:44:00,
2013-04-13 10:50:00,73.0,68.0,29.94,NW,312,7.0,8.0,84,0.00,,,0.00,meteohub,2013-04-13 14:50:00,
2013-04-13 10:56:00,72.7,67.8,29.94,NW,311,0.0,9.0,85,0.00,,,0.00,meteohub,2013-04-13 14:56:00,
2013-04-13 11:02:00,73.2,68.7,29.94,WNW,294,2.0,9.0,86,0.00,,,0.00,meteohub,2013-04-13 15:02:00,
2013-04-13 11:08:00,73.6,68.4,29.94,WNW,301,4.0,9.0,84,0.00,,,0.00,meteohub,2013-04-13 15:08:00,
2013-04-13 11:14:00,73.6,68.4,29.94,NNE,25,6.0,8.0,84,0.00,,,0.00,meteohub,2013-04-13 15:14:00,
2013-04-13 11:21:00,74.1,68.5,29.95,NNW,341,0.0,9.0,83,0.00,,,0.00,meteohub,2013-04-13 15:21:00,
2013-04-13 11:27:00,74.1,68.2,29.95,WNW,284,0.0,9.0,82,0.00,,,0.00,meteohub,2013-04-13 15:27:00,
2013-04-13 11:32:00,74.1,68.5,29.95,NW,320,8.0,8.0,83,0.00,,,0.00,meteohub,2013-04-13 15:32:00,
2013-04-13 11:37:00,73.8,68.4,29.95,NW,311,8.0,11.0,83,0.00,,,0.00,meteohub,2013-04-13 15:37:00,
2013-04-13 11:42:00,73.9,68.4,29.95,NW,326,5.0,11.0,83,0.00,,,0.00,meteohub,2013-04-13 15:42:00,
2013-04-13 11:48:00,74.7,68.4,29.95,NNW,342,4.0,11.0,81,0.00,,,0.00,meteohub,2013-04-13 15:48:00,
2013-04-13 11:54:00,74.7,67.6,29.96,NW,323,2.0,9.0,79,0.00,,,0.00,meteohub,2013-04-13 15:54:00,
2013-04-13 12:00:00,74.8,67.8,29.96,NNW,343,0.0,11.0,79,0.00,,,0.00,meteohub,2013-04-13 16:00:00,
2013-04-13 12:07:00,75.7,68.0,29.96,NNE,13,2.0,11.0,77,0.00,,,0.00,meteohub,2013-04-13 16:07:00,
2013-04-13 12:12:00,76.1,67.6,29.95,NNW,328,0.0,9.0,75,0.00,,,0.00,meteohub,2013-04-13 16:12:00,
2013-04-13 12:19:00,75.7,67.6,29.95,NW,308,1.0,8.0,76,0.00,,,0.00,meteohub,2013-04-13 16:19:00,
2013-04-13 12:25:00,76.5,68.4,29.95,NNW,337,2.0,8.0,76,0.00,,,0.00,meteohub,2013-04-13 16:25:00,
2013-04-13 12:31:00,76.5,67.6,29.95,North,354,3.0,8.0,74,0.00,,,0.00,meteohub,2013-04-13 16:31:00,
2013-04-13 12:37:00,75.7,67.6,29.95,NW,320,0.0,9.0,76,0.00,,,0.00,meteohub,2013-04-13 16:37:00,
2013-04-13 12:42:00,75.7,68.4,29.95,NNW,337,0.0,9.0,78,0.00,,,0.00,meteohub,2013-04-13 16:42:00,
2013-04-13 12:49:00,76.1,68.7,29.94,NW,308,0.0,9.0,78,0.00,,,0.00,meteohub,2013-04-13 16:49:00,
2013-04-13 12:55:00,77.0,68.9,29.94,NNW,328,7.0,7.0,76,0.00,,,0.00,meteohub,2013-04-13 16:55:00,
2013-04-13 13:02:00,76.8,69.1,29.94,West,259,0.0,7.0,77,0.00,,,0.00,meteohub,2013-04-13 17:02:00,
2013-04-13 13:07:00,77.2,69.1,29.94,NNW,329,5.0,8.0,76,0.00,,,0.00,meteohub,2013-04-13 17:07:00,
2013-04-13 13:13:00,77.2,69.4,29.93,NW,318,4.0,8.0,77,0.00,,,0.00,meteohub,2013-04-13 17:13:00,
2013-04-13 13:18:00,76.8,69.1,29.93,NW,306,5.0,8.0,77,0.00,,,0.00,meteohub,2013-04-13 17:18:00,
2013-04-13 13:25:00,76.8,69.4,29.93,North,354,7.0,8.0,78,0.00,,,0.00,meteohub,2013-04-13 17:25:00,
2013-04-13 13:31:00,76.5,69.4,29.93,NNW,335,8.0,10.0,79,0.00,,,0.00,meteohub,2013-04-13 17:31:00,
2013-04-13 13:37:00,76.6,69.6,29.92,WNW,285,3.0,11.0,79,0.00,,,0.00,meteohub,2013-04-13 17:37:00,
2013-04-13 13:42:00,77.0,69.3,29.92,NW,326,7.0,11.0,77,0.00,,,0.00,meteohub,2013-04-13 17:42:00,
2013-04-13 13:47:00,76.3,68.9,29.92,NW,314,7.0,11.0,78,0.00,,,0.00,meteohub,2013-04-13 17:47:00,
2013-04-13 13:52:00,76.3,69.3,29.92,SSW,208,0.0,10.0,79,0.00,,,0.00,meteohub,2013-04-13 17:52:00,
2013-04-13 13:57:00,76.6,68.9,29.92,NW,305,3.0,10.0,77,0.00,,,0.00,meteohub,2013-04-13 17:57:00,
2013-04-13 14:02:00,77.2,69.4,29.92,NNW,345,5.0,10.0,77,0.00,,,0.00,meteohub,2013-04-13 18:02:00,
2013-04-13 14:07:00,77.5,68.9,29.92,West,278,6.0,10.0,75,0.00,,,0.00,meteohub,2013-04-13 18:07:00,
2013-04-13 14:14:00,76.8,68.7,29.91,NW,320,3.0,10.0,76,0.00,,,0.00,meteohub,2013-04-13 18:14:00,
2013-04-13 14:21:00,76.8,68.4,29.91,NW,309,7.0,12.0,75,0.00,,,0.00,meteohub,2013-04-13 18:21:00,
2013-04-13 14:27:00,76.8,68.7,29.91,WNW,289,5.0,12.0,76,0.00,,,0.00,meteohub,2013-04-13 18:27:00,
2013-04-13 14:33:00,77.4,68.9,29.90,WNW,298,2.0,8.0,75,0.00,,,0.00,meteohub,2013-04-13 18:33:00,
2013-04-13 14:36:00,77.2,68.2,29.90,NW,319,2.0,8.0,74,0.00,,,0.00,meteohub,2013-04-13 18:36:00,
2013-04-13 14:42:00,77.4,68.9,29.90,WSW,253,0.0,10.0,75,0.00,,,0.00,meteohub,2013-04-13 18:42:00,
2013-04-13 14:47:00,78.6,69.3,29.90,WNW,298,5.0,10.0,73,0.00,,,0.00,meteohub,2013-04-13 18:47:00,
2013-04-13 14:55:00,78.1,68.7,29.90,West,274,5.0,10.0,73,0.00,,,0.00,meteohub,2013-04-13 18:55:00,
2013-04-13 15:01:00,77.7,68.0,29.90,WNW,294,3.0,11.0,72,0.00,,,0.00,meteohub,2013-04-13 19:01:00,
2013-04-13 15:07:00,77.7,68.4,29.89,WNW,294,1.0,11.0,73,0.00,,,0.00,meteohub,2013-04-13 19:07:00,
2013-04-13 15:12:00,78.6,68.9,29.89,North,354,6.0,9.0,72,0.00,,,0.00,meteohub,2013-04-13 19:12:00,
2013-04-13 15:17:00,78.6,68.9,29.89,NW,321,5.0,9.0,72,0.00,,,0.00,meteohub,2013-04-13 19:17:00,
2013-04-13 15:22:00,78.3,68.0,29.89,WNW,286,3.0,9.0,71,0.00,,,0.00,meteohub,2013-04-13 19:22:00,
2013-04-13 15:28:00,77.7,67.6,29.89,WNW,289,7.0,11.0,71,0.00,,,0.00,meteohub,2013-04-13 19:28:00,
2013-04-13 15:34:00,77.7,68.4,29.88,West,266,4.0,13.0,73,0.00,,,0.00,meteohub,2013-04-13 19:34:00,
2013-04-13 15:40:00,78.4,68.2,29.88,NW,318,5.0,13.0,71,0.00,,,0.00,meteohub,2013-04-13 19:40:00,
2013-04-13 15:46:00,78.6,68.4,29.88,NW,325,1.0,12.0,71,0.00,,,0.00,meteohub,2013-04-13 19:46:00,
2013-04-13 15:52:00,78.4,68.2,29.88,WNW,291,1.0,9.0,71,0.00,,,0.00,meteohub,2013-04-13 19:52:00,
2013-04-13 15:58:00,78.4,67.8,29.88,WNW,303,3.0,8.0,70,0.00,,,0.00,meteohub,2013-04-13 19:58:00,
2013-04-13 16:04:00,78.3,67.6,29.88,West,275,6.0,8.0,70,0.00,,,0.00,meteohub,2013-04-13 20:04:00,
2013-04-13 16:10:00,78.6,67.6,29.88,NW,306,4.0,10.0,69,0.00,,,0.00,meteohub,2013-04-13 20:10:00,
2013-04-13 16:17:00,77.4,66.7,29.88,WNW,282,4.0,10.0,70,0.00,,,0.00,meteohub,2013-04-13 20:17:00,
2013-04-13 16:22:00,76.5,67.1,29.88,WNW,283,5.0,12.0,73,0.00,,,0.00,meteohub,2013-04-13 20:22:00,
2013-04-13 16:27:00,76.3,67.5,29.88,WNW,293,8.0,12.0,74,0.00,,,0.00,meteohub,2013-04-13 20:27:00,
2013-04-13 16:32:00,76.5,67.6,29.88,West,264,5.0,12.0,74,0.00,,,0.00,meteohub,2013-04-13 20:32:00,
2013-04-13 16:38:00,76.3,67.5,29.88,WSW,256,7.0,12.0,74,0.00,,,0.00,meteohub,2013-04-13 20:38:00,
2013-04-13 16:44:00,75.9,67.1,29.88,NW,308,2.0,13.0,74,0.00,,,0.00,meteohub,2013-04-13 20:44:00,
2013-04-13 16:50:00,75.9,67.1,29.88,West,262,6.0,14.0,74,0.00,,,0.00,meteohub,2013-04-13 20:50:00,
2013-04-13 16:56:00,75.7,67.3,29.88,WNW,298,7.0,14.0,75,0.00,,,0.00,meteohub,2013-04-13 20:56:00,
2013-04-13 17:02:00,75.6,67.1,29.88,West,275,9.0,14.0,75,0.00,,,0.00,meteohub,2013-04-13 21:02:00,
2013-04-13 17:07:00,75.6,67.5,29.88,West,266,6.0,14.0,76,0.00,,,0.00,meteohub,2013-04-13 21:07:00,
2013-04-13 17:12:00,76.3,67.8,29.89,NW,321,5.0,14.0,75,0.00,,,0.00,meteohub,2013-04-13 21:12:00,
2013-04-13 17:17:00,76.5,67.6,29.89,WNW,293,1.0,13.0,74,0.00,,,0.00,meteohub,2013-04-13 21:17:00,
2013-04-13 17:22:00,76.1,67.3,29.88,WNW,287,4.0,12.0,74,0.00,,,0.00,meteohub,2013-04-13 21:22:00,
2013-04-13 17:29:00,76.6,67.3,29.88,WNW,299,3.0,13.0,73,0.00,,,0.00,meteohub,2013-04-13 21:29:00,
2013-04-13 17:35:00,76.3,67.5,29.88,WNW,299,3.0,12.0,74,0.00,,,0.00,meteohub,2013-04-13 21:35:00,
2013-04-13 17:41:00,76.6,67.3,29.88,NW,313,10.0,12.0,73,0.00,,,0.00,meteohub,2013-04-13 21:41:00,
2013-04-13 17:47:00,76.3,67.5,29.88,WNW,303,2.0,12.0,74,0.00,,,0.00,meteohub,2013-04-13 21:47:00,
2013-04-13 17:52:00,76.5,67.1,29.89,West,279,4.0,10.0,73,0.00,,,0.00,meteohub,2013-04-13 21:52:00,
2013-04-13 17:57:00,76.5,67.1,29.89,NW,314,7.0,10.0,73,0.00,,,0.00,meteohub,2013-04-13 21:57:00,
2013-04-13 18:02:00,75.9,67.1,29.89,West,267,4.0,9.0,74,0.00,,,0.00,meteohub,2013-04-13 22:02:00,
2013-04-13 18:09:00,75.6,66.7,29.89,WNW,293,8.0,9.0,74,0.00,,,0.00,meteohub,2013-04-13 22:09:00,
2013-04-13 18:15:00,75.6,66.7,29.88,WNW,283,0.0,9.0,74,0.00,,,0.00,meteohub,2013-04-13 22:15:00,
2013-04-13 18:21:00,76.1,66.7,29.89,NNE,20,0.0,10.0,73,0.00,,,0.00,meteohub,2013-04-13 22:21:00,
2013-04-13 18:27:00,76.6,67.3,29.88,NE,51,4.0,10.0,73,0.00,,,0.00,meteohub,2013-04-13 22:27:00,
2013-04-13 18:32:00,76.5,66.7,29.89,North,349,3.0,10.0,72,0.00,,,0.00,meteohub,2013-04-13 22:32:00,
2013-04-13 18:37:00,75.7,66.4,29.88,NW,322,0.0,10.0,73,0.00,,,0.00,meteohub,2013-04-13 22:37:00,
2013-04-13 18:42:00,75.7,66.9,29.89,NW,323,3.0,10.0,74,0.00,,,0.00,meteohub,2013-04-13 22:42:00,
2013-04-13 18:47:00,75.6,66.4,29.89,NW,322,0.0,10.0,73,0.00,,,0.00,meteohub,2013-04-13 22:47:00,
2013-04-13 18:52:00,75.6,66.4,29.89,NW,323,0.0,6.0,73,0.00,,,0.00,meteohub,2013-04-13 22:52:00,
2013-04-13 18:58:00,75.0,66.2,29.89,NNW,343,0.0,7.0,74,0.00,,,0.00,meteohub,2013-04-13 22:58:00,
2013-04-13 19:04:00,74.8,66.0,29.89,NNW,332,3.0,7.0,74,0.00,,,0.00,meteohub,2013-04-13 23:04:00,
2013-04-13 19:10:00,74.3,65.8,29.89,North,10,2.0,9.0,75,0.00,,,0.00,meteohub,2013-04-13 23:10:00,
2013-04-13 19:16:00,73.9,65.8,29.89,North,4,3.0,9.0,76,0.00,,,0.00,meteohub,2013-04-13 23:16:00,
2013-04-13 19:22:00,73.9,65.8,29.88,NNE,16,0.0,9.0,76,0.00,,,0.00,meteohub,2013-04-13 23:22:00,
2013-04-13 19:27:00,73.8,65.7,29.88,North,4,5.0,8.0,76,0.00,,,0.00,meteohub,2013-04-13 23:27:00,
2013-04-13 19:32:00,73.8,65.7,29.88,North,354,0.0,8.0,76,0.00,,,0.00,meteohub,2013-04-13 23:32:00,
2013-04-13 19:37:00,73.6,65.5,29.88,NW,326,1.0,7.0,76,0.00,,,0.00,meteohub,2013-04-13 23:37:00,
2013-04-13 19:42:00,73.6,65.8,29.88,NNE,13,4.0,7.0,77,0.00,,,0.00,meteohub,2013-04-13 23:42:00,
2013-04-13 19:47:00,73.2,65.7,29.88,North,4,1.0,9.0,77,0.00,,,0.00,meteohub,2013-04-13 23:47:00,
2013-04-13 19:52:00,73.2,65.7,29.88,NNE,21,4.0,9.0,77,0.00,,,0.00,meteohub,2013-04-13 23:52:00,
2013-04-13 19:57:00,73.2,65.1,29.88,NE,36,5.0,9.0,76,0.00,,,0.00,meteohub,2013-04-13 23:57:00,
2013-04-13 20:02:00,73.2,65.1,29.88,NNE,23,2.0,9.0,76,0.00,,,0.00,meteohub,2013-04-14 00:02:00,
2013-04-13 20:07:00,73.2,65.1,29.88,North,10,3.0,9.0,76,0.00,,,0.00,meteohub,2013-04-14 00:07:00,
2013-04-13 20:12:00,73.2,65.7,29.88,North,359,4.0,8.0,77,0.00,,,0.00,meteohub,2013-04-14 00:12:00,
2013-04-13 20:17:00,73.2,65.7,29.88,North,4,7.0,7.0,77,0.00,,,0.00,meteohub,2013-04-14 00:17:00,
2013-04-13 20:24:00,73.2,65.7,29.88,North,4,0.0,8.0,77,0.00,,,0.00,meteohub,2013-04-14 00:24:00,
2013-04-13 20:30:00,73.4,66.2,29.87,North,349,3.0,8.0,78,0.00,,,0.00,meteohub,2013-04-14 00:30:00,
2013-04-13 20:36:00,73.2,66.4,29.87,NW,322,0.0,6.0,79,0.00,,,0.00,meteohub,2013-04-14 00:36:00,
2013-04-13 20:42:00,73.2,66.4,29.87,NNW,342,4.0,6.0,79,0.00,,,0.00,meteohub,2013-04-14 00:42:00,
2013-04-13 20:47:00,73.2,66.4,29.87,North,4,0.0,8.0,79,0.00,,,0.00,meteohub,2013-04-14 00:47:00,
2013-04-13 20:52:00,73.4,66.6,29.88,North,349,5.0,8.0,79,0.00,,,0.00,meteohub,2013-04-14 00:52:00,
2013-04-13 20:57:00,73.2,66.4,29.88,North,9,1.0,8.0,79,0.00,,,0.00,meteohub,2013-04-14 00:57:00,
2013-04-13 21:02:00,73.0,66.6,29.88,NNW,348,5.0,6.0,80,0.00,,,0.00,meteohub,2013-04-14 01:02:00,
2013-04-13 21:07:00,73.0,66.6,29.89,North,4,1.0,7.0,80,0.00,,,0.00,meteohub,2013-04-14 01:07:00,
2013-04-13 21:13:00,73.0,66.6,29.89,North,359,5.0,7.0,80,0.00,,,0.00,meteohub,2013-04-14 01:13:00,
2013-04-13 21:19:00,73.0,66.6,29.90,NNW,336,3.0,6.0,80,0.00,,,0.00,meteohub,2013-04-14 01:19:00,
2013-04-13 21:25:00,73.2,66.7,29.90,NNE,33,0.0,6.0,80,0.00,,,0.00,meteohub,2013-04-14 01:25:00,
2013-04-13 21:31:00,73.2,67.1,29.91,NNE,32,0.0,7.0,81,0.00,,,0.00,meteohub,2013-04-14 01:31:00,
2013-04-13 21:37:00,73.2,67.1,29.91,NW,315,0.0,7.0,81,0.00,,,0.00,meteohub,2013-04-14 01:37:00,
2013-04-13 21:42:00,73.0,66.9,29.91,NNW,342,2.0,7.0,81,0.00,,,0.00,meteohub,2013-04-14 01:42:00,
2013-04-13 21:49:00,72.9,66.7,29.91,NNW,332,0.0,7.0,81,0.00,,,0.00,meteohub,2013-04-14 01:49:00,
2013-04-13 21:55:00,72.7,66.6,29.91,NNE,12,2.0,7.0,81,0.00,,,0.00,meteohub,2013-04-14 01:55:00,
2013-04-13 22:01:00,72.9,66.7,29.92,North,4,2.0,6.0,81,0.00,,,0.00,meteohub,2013-04-14 02:01:00,
2013-04-13 22:07:00,72.7,66.9,29.92,North,354,4.0,5.0,82,0.00,,,0.00,meteohub,2013-04-14 02:07:00,
2013-04-13 22:13:00,72.7,67.3,29.92,North,354,0.0,7.0,83,0.00,,,0.00,meteohub,2013-04-14 02:13:00,
2013-04-13 22:19:00,72.7,66.9,29.92,North,350,5.0,7.0,82,0.00,,,0.00,meteohub,2013-04-14 02:19:00,
2013-04-13 22:25:00,72.7,66.9,29.92,NE,38,0.0,6.0,82,0.00,,,0.00,meteohub,2013-04-14 02:25:00,
2013-04-13 22:32:00,72.7,66.6,29.92,NE,41,1.0,6.0,81,0.00,,,0.00,meteohub,2013-04-14 02:32:00,
2013-04-13 22:37:00,72.7,66.6,29.93,NE,50,0.0,6.0,81,0.00,,,0.00,meteohub,2013-04-14 02:37:00,
2013-04-13 22:42:00,72.5,66.4,29.93,NE,48,0.0,6.0,81,0.00,,,0.00,meteohub,2013-04-14 02:42:00,
2013-04-13 22:47:00,72.1,66.4,29.93,NE,54,3.0,5.0,82,0.00,,,0.00,meteohub,2013-04-14 02:47:00,
2013-04-13 22:53:00,72.0,66.2,29.93,NE,56,0.0,5.0,82,0.00,,,0.00,meteohub,2013-04-14 02:53:00,
2013-04-13 22:59:00,71.8,66.0,29.93,NE,53,0.0,5.0,82,0.00,,,0.00,meteohub,2013-04-14 02:59:00,
2013-04-13 23:05:00,71.4,65.7,29.93,ENE,58,0.0,5.0,82,0.00,,,0.00,meteohub,2013-04-14 03:05:00,
2013-04-13 23:11:00,71.2,65.5,29.93,NE,52,0.0,5.0,82,0.00,,,0.00,meteohub,2013-04-14 03:11:00,
2013-04-13 23:17:00,71.2,65.5,29.93,ENE,60,0.0,5.0,82,0.00,,,0.00,meteohub,2013-04-14 03:17:00,
2013-04-13 23:22:00,71.1,65.7,29.93,ENE,60,1.0,5.0,83,0.00,,,0.00,meteohub,2013-04-14 03:22:00,
2013-04-13 23:27:00,70.9,65.5,29.93,NE,56,0.0,4.0,83,0.00,,,0.00,meteohub,2013-04-14 03:27:00,
2013-04-13 23:32:00,70.9,65.5,29.93,NE,52,2.0,4.0,83,0.00,,,0.00,meteohub,2013-04-14 03:32:00,
2013-04-13 23:37:00,71.1,65.3,29.93,NE,50,0.0,4.0,82,0.00,,,0.00,meteohub,2013-04-14 03:37:00,
2013-04-13 23:42:00,71.1,65.7,29.93,NE,55,0.0,4.0,83,0.00,,,0.00,meteohub,2013-04-14 03:42:00,
2013-04-13 23:47:00,70.9,65.1,29.93,NE,56,2.0,5.0,82,0.00,,,0.00,meteohub,2013-04-14 03:47:00,
2013-04-13 23:52:00,70.5,65.1,29.93,ENE,64,0.0,5.0,83,0.00,,,0.00,meteohub,2013-04-14 03:52:00,
2013-04-13 23:57:00,70.5,65.1,29.93,ENE,66,0.0,5.0,83,0.00,,,0.00,meteohub,2013-04-14 03:57:00,